Weather History for Poplar Bluff, MO

Change the Weather History Date:

Saturday, September 8, 2012

  Actual Average Record
Temperature  
Mean Temperature 70 °F -  
Max Temperature 79 °F 86 °F 103 °F (1925)
Min Temperature 59 °F 63 °F 45 °F (1953)
Cooling Degree Days 4    
Growing Degree Days 20 (Base 50)    
Moisture  
Dew Point 57 °F    
Average Humidity 67    
Maximum Humidity 88    
Minimum Humidity 39    
Precipitation  
Precipitation 0.02 in - - ()
Sea Level Pressure  
Sea Level Pressure 29.95 in    
Wind  
Wind Speed 9 mph (NNW)    
Max Wind Speed 14 mph    
Max Gust Speed 23 mph    
Visibility 10 miles    
Events Rain    
Averages and records for this station are not official NWS values.
T = Trace of Precipitation, MM = Missing Value Source: NWS Daily Summary

Daily Weather History Graph

Daily Weather History Graph

Search for Another Location

Airport:

Trip Planner

Search our weather history database for the weather conditions in past years. The results will help you decide how hot, cold, wet, or windy it might be!

Date:

Astronomy

Sep. 08, 2012 Rise Set
Actual Time 6:38 AM CDT 7:18 PM CDT
Civil Twilight 6:12 AM CDT 7:44 PM CDT
Nautical Twilight 5:41 AM CDT 8:15 PM CDT
Astronomical Twilight 5:09 AM CDT 8:47 PM CDT
Moon No Moon Rise 2:08 PM CDT (9/8)
Length of Visible Light 13h 32m
Length of Day
12h 40m
Waning Gibbous, 48% of the Moon is Illuminated
Sep 8
Waning Gibbous
Sep 15
New
Sep 22
First Quarter
Sep 29
Full
Oct 8
Last Quarter

Hourly Weather History & Observations

Time (CDT) Temp. Dew Point Humidity Pressure Visibility Wind Dir Wind Speed Gust Speed Precip Events Conditions
12:35 AM 71.6 °F 68.0 °F 88% 29.86 in 10.0 mi NNW 10.4 mph - 0.01 in Rain Light Rain
12:53 AM 71.1 °F 66.9 °F 87% 29.85 in 10.0 mi NNW 12.7 mph 21.9 mph 0.01 in Rain Light Rain
1:53 AM 70.0 °F 66.0 °F 87% 29.85 in 10.0 mi NNW 12.7 mph - 0.01 in   Overcast
2:53 AM 70.0 °F 66.0 °F 87% 29.84 in 10.0 mi NNW 8.1 mph - N/A   Overcast
3:53 AM 69.1 °F 64.0 °F 84% 29.85 in 10.0 mi North 11.5 mph - N/A   Mostly Cloudy
4:53 AM 66.9 °F 61.0 °F 81% 29.88 in 10.0 mi NNW 10.4 mph 20.7 mph N/A   Mostly Cloudy
5:53 AM 64.0 °F 57.0 °F 78% 29.91 in 10.0 mi NNW 13.8 mph - N/A   Clear
6:53 AM 62.1 °F 55.9 °F 80% 29.94 in 10.0 mi North 8.1 mph - N/A   Clear
7:53 AM 64.0 °F 57.0 °F 78% 29.96 in 10.0 mi NNW 4.6 mph - N/A   Clear
8:53 AM 68.0 °F 57.0 °F 68% 29.97 in 10.0 mi North 9.2 mph - N/A   Clear
9:53 AM 71.1 °F 57.0 °F 61% 30.00 in 10.0 mi North 8.1 mph - N/A   Clear
10:53 AM 73.0 °F 54.0 °F 51% 29.99 in 10.0 mi NNW 13.8 mph 20.7 mph N/A   Clear
11:53 AM 75.0 °F 53.1 °F 46% 29.99 in 10.0 mi North 12.7 mph 18.4 mph N/A   Clear
12:53 PM 75.9 °F 52.0 °F 43% 30.00 in 10.0 mi NNW 13.8 mph 20.7 mph N/A   Clear
1:53 PM 77.0 °F 52.0 °F 42% 29.98 in 10.0 mi NNW 11.5 mph 23.0 mph N/A   Clear
2:53 PM 78.1 °F 54.0 °F 43% 29.96 in 10.0 mi North 12.7 mph 16.1 mph N/A   Clear
3:53 PM 79.0 °F 52.0 °F 39% 29.95 in 10.0 mi NNW 6.9 mph - N/A   Clear
4:53 PM 78.1 °F 51.1 °F 39% 29.94 in 10.0 mi NW 9.2 mph - N/A   Clear
5:53 PM 77.0 °F 52.0 °F 42% 29.96 in 10.0 mi NNW 8.1 mph - N/A   Clear
6:53 PM 72.0 °F 53.1 °F 51% 29.97 in 10.0 mi NW 6.9 mph - N/A   Clear
7:53 PM 66.0 °F 54.0 °F 65% 29.98 in 10.0 mi Calm Calm - N/A   Clear
8:53 PM 62.1 °F 55.9 °F 80% 30.00 in 10.0 mi Calm Calm - N/A   Clear
9:53 PM 62.1 °F 55.0 °F 78% 30.01 in 10.0 mi Calm Calm - N/A   Clear
10:53 PM 60.1 °F 55.9 °F 86% 30.01 in 10.0 mi Calm Calm - N/A   Clear
11:53 PM 59.0 °F 55.0 °F 87% 30.01 in 10.0 mi Calm Calm - N/A   Clear